Theta_e
303 303 307 313 316 320 326 331 340 345 346 340 335 333 330 332 335 334 329 326 325 318 313 314 313 314 317 315 312 310 310 311 314 326 331 311 305 306 304 305 305 307 311 313 317 322 326 329 333 336 337 337 336 335 335 335 335 335 335 334 333 333 333 335 335 335 336 336 336 336 336 336 335 335 335 335 335 335 335 336 335 335 335 335 334 334 333 332 333 333 332 333 334 334 334 334 334
303 305 311 317 316 323 334 339 344 343 342 336 330 330 328 330 331 330 327 325 324 316 312 311 311 311 311 311 310 311 309 306 305 309 310 304 306 306 302 303 303 307 311 312 317 320 323 327 330 333 334 336 335 335 335 335 335 335 335 334 334 334 334 334 335 335 336 335 335 335 335 335 335 335 335 335 335 335 335 335 335 335 336 336 335 335 335 333 333 333 332 332 333 333 334 334 333
303 307 314 319 318 326 336 340 347 342 342 337 328 327 328 328 326 325 322 320 317 313 312 311 310 309 310 313 311 313 310 305 304 303 305 303 304 304 302 302 302 306 310 311 316 318 320 324 327 330 332 333 334 334 334 334 334 334 334 334 334 334 334 334 334 334 334 334 334 334 334 334 334 334 334 334 334 334 334 334 334 335 335 335 335 335 335 334 333 333 332 331 332 333 334 335 333
303 309 312 319 325 333 340 341 347 345 339 337 331 326 327 325 322 320 318 317 315 314 315 312 310 306 308 312 308 311 308 304 304 302 303 302 301 301 300 301 301 303 308 311 313 316 318 321 325 327 329 330 331 331 331 332 332 332 331 332 332 331 331 331 331 330 330 330 331 331 331 331 331 331 332 332 333 333 333 332 333 334 334 335 335 335 335 335 334 334 332 331 332 333 334 335 333
306 311 310 318 331 335 339 336 336 339 331 332 333 325 325 322 318 317 315 315 313 315 315 313 313 306 305 305 304 307 305 303 303 301 301 300 299 300 299 300 300 300 304 309 311 313 316 318 321 324 326 327 327 327 328 329 329 329 329 329 329 328 328 328 327 327 326 327 328 327 328 328 328 327 328 329 330 330 330 330 330 331 332 333 334 334 335 335 335 334 334 333 333 333 334 334 333
309 314 312 316 326 329 336 334 328 328 321 323 327 321 322 320 317 316 314 314 311 312 312 313 313 307 304 303 302 303 302 303 303 300 300 299 298 298 299 299 299 299 301 305 309 310 313 315 317 321 323 323 325 325 325 325 326 326 326 326 326 326 325 326 325 325 325 325 325 324 324 325 326 326 325 325 326 326 327 327 327 327 328 329 331 332 333 333 333 335 335 334 334 334 334 333 333
310 315 320 322 323 325 331 329 324 323 317 317 319 318 320 319 317 316 316 317 314 311 310 309 308 308 307 304 303 302 300 302 301 300 299 298 297 297 298 297 297 298 298 301 305 307 309 312 314 317 318 319 321 321 322 322 323 323 323 323 323 323 323 324 324 324 324 323 323 323 323 322 323 323 323 323 323 323 324 324 325 324 325 325 326 328 330 330 331 333 333 334 334 334 334 334 333
311 317 326 333 330 327 326 322 320 320 317 315 316 316 316 316 316 315 314 316 315 311 310 308 308 311 308 305 305 303 301 300 300 300 299 298 297 296 297 296 296 297 297 298 302 305 307 310 313 314 315 316 317 317 319 320 320 320 320 320 320 320 321 321 321 322 322 321 321 321 322 321 320 320 320 321 321 321 321 321 322 322 322 322 323 324 326 327 327 329 330 332 333 333 333 333 334
312 317 322 332 332 326 324 321 319 316 315 313 314 315 314 313 314 313 313 312 311 309 310 310 311 313 307 303 303 302 301 299 299 300 299 298 297 296 296 296 297 296 297 298 300 302 304 308 312 313 312 312 313 314 314 315 316 316 316 316 316 316 316 316 316 317 318 318 317 316 317 316 316 317 316 316 318 319 319 318 319 319 319 319 320 321 322 323 323 324 326 328 330 331 332 332 332
317 319 322 330 328 323 322 322 320 316 314 313 312 313 313 313 312 312 312 311 310 309 309 308 310 310 306 302 301 299 299 298 299 300 298 297 296 296 295 295 296 296 296 296 297 298 301 306 309 311 310 310 310 310 310 311 311 312 312 312 312 311 311 311 311 312 313 314 312 311 311 310 312 314 313 312 313 314 315 314 314 315 316 316 316 318 319 319 319 321 323 324 325 327 329 330 330
323 322 332 337 329 325 321 319 318 315 313 312 312 311 312 312 312 312 311 311 310 309 308 307 308 306 304 302 300 298 296 297 298 297 296 295 295 294 294 294 294 294 294 295 295 295 298 302 305 306 306 307 307 306 306 306 307 307 308 307 307 306 306 305 305 305 306 307 307 307 306 305 307 310 309 308 308 308 311 310 309 310 311 312 312 313 315 316 316 317 319 320 321 322 324 326 327
324 324 341 339 326 322 317 316 315 314 312 312 312 309 309 310 311 310 310 311 310 310 307 306 308 306 305 302 299 297 296 297 296 295 294 294 294 294 293 294 293 294 294 294 294 294 295 296 298 298 299 301 302 302 301 301 302 303 303 302 301 300 300 300 299 299 299 300 300 300 300 300 302 304 304 303 302 303 306 306 304 303 305 306 307 307 309 310 311 312 315 316 317 319 320 321 323
326 325 336 327 317 317 315 316 314 316 314 311 310 307 307 308 308 307 308 309 307 311 307 303 307 308 305 301 298 297 296 296 295 294 295 294 294 293 293 293 293 293 294 294 294 294 295 295 295 295 295 295 296 296 296 296 297 297 297 297 297 296 296 296 296 295 295 295 295 295 295 295 297 298 299 298 298 299 301 301 300 299 299 301 302 302 303 304 305 306 308 310 311 313 316 317 318
325 325 329 320 316 318 317 318 316 321 316 309 307 304 304 305 304 304 307 310 305 305 303 299 304 307 304 301 299 297 296 296 295 295 294 294 293 293 293 293 293 293 293 293 294 295 296 296 296 296 296 296 295 295 294 294 294 294 294 294 294 294 294 294 294 293 293 293 293 294 293 294 294 294 295 295 295 295 295 296 296 296 296 297 297 298 298 299 300 301 302 303 305 306 308 310 312
322 327 329 324 321 319 318 319 319 322 316 309 306 302 302 301 301 302 303 309 304 298 300 300 300 306 306 303 301 297 296 296 295 295 294 294 293 293 293 294 294 294 295 295 295 296 296 297 297 298 298 298 298 297 297 297 297 296 296 296 295 295 294 293 293 293 293 293 293 293 293 293 293 293 293 293 293 292 292 293 293 293 294 294 294 295 295 296 297 297 297 299 300 301 303 304 305
319 323 326 323 319 318 317 316 317 320 315 307 304 303 304 300 299 300 299 302 301 296 299 300 298 301 302 300 299 296 296 296 295 294 294 294 293 294 295 296 297 297 298 298 298 298 298 298 298 298 298 298 299 299 299 299 299 299 299 299 299 298 297 297 296 295 294 293 292 292 292 292 293 292 292 292 292 292 291 291 292 292 292 292 293 293 293 293 294 294 294 295 296 298 299 300 301
316 318 319 318 316 316 316 315 316 318 312 305 304 304 306 301 298 299 297 297 298 296 296 296 296 297 296 296 296 295 295 295 294 294 294 294 294 295 296 297 298 298 299 299 299 299 299 300 300 300 299 299 299 299 299 299 298 299 299 299 299 299 299 299 299 299 298 297 296 294 293 292 292 292 292 292 292 292 292 292 291 291 291 291 292 292 292 292 292 292 293 293 293 294 296 297 298
316 318 315 315 314 312 311 313 315 313 309 306 304 304 305 304 300 300 299 297 296 296 295 295 295 295 295 295 294 294 295 294 294 294 294 295 295 295 294 294 294 294 294 295 295 295 295 296 297 297 297 297 297 297 298 297 297 297 297 297 298 298 297 298 298 299 300 300 299 299 297 295 293 293 292 291 291 291 292 292 291 291 291 291 292 292 292 292 291 291 291 292 292 292 293 295 295
313 315 312 312 310 306 304 307 309 308 306 304 302 303 305 305 302 301 300 298 297 297 296 295 295 295 295 295 294 294 294 294 294 294 294 294 294 293 292 291 291 291 291 292 292 292 292 292 292 293 293 293 293 294 294 294 294 294 294 294 294 294 293 293 294 295 295 296 296 296 296 295 295 295 294 293 292 292 292 291 291 291 292 291 292 292 292 292 291 291 291 291 291 292 292 292 292
308 310 311 309 306 304 302 303 303 304 303 301 301 301 302 301 301 300 299 299 298 298 297 295 295 295 296 296 296 295 294 294 294 293 293 293 292 292 291 291 291 291 291 291 291 292 292 292 292 292 291 292 292 292 292 292 292 292 291 291 291 291 291 291 291 291 291 291 291 291 291 292 292 293 293 293 293 293 293 292 292 291 291 291 291 291 291 291 291 291 290 290 290 291 291 291 291
306 306 309 306 305 305 303 302 302 301 301 301 301 300 300 299 299 298 300 304 300 297 297 296 295 295 296 296 296 295 295 294 293 293 292 292 292 291 291 291 291 291 291 291 291 292 292 292 292 292 292 291 291 291 291 291 291 291 291 291 291 291 290 290 290 290 290 290 290 290 290 290 290 290 290 291 291 291 291 292 292 292 291 291 290 291 291 290 290 290 290 290 290 289 289 289 290
305 303 304 304 305 304 303 302 302 302 301 301 301 300 299 298 298 297 300 305 300 296 297 296 296 296 296 295 295 295 294 293 292 292 291 291 291 291 291 291 291 291 291 291 291 292 292 292 292 291 292 292 291 291 291 291 291 291 291 291 291 291 291 291 290 290 290 290 290 290 290 290 290 290 290 290 290 290 290 291 291 291 290 290 290 290 290 290 289 289 289 289 289 289 289 289 289
305 303 302 303 304 303 302 302 301 302 303 302 300 299 298 298 298 296 297 298 297 296 296 296 296 296 295 295 294 294 293 293 292 291 291 291 291 291 291 291 292 291 291 292 291 292 292 292 292 291 291 291 291 291 291 291 291 291 291 291 291 291 291 291 291 290 290 290 290 290 290 290 290 290 290 290 290 290 290 290 290 290 290 290 290 290 289 289 289 289 289 289 289 289 289 289 289
304 303 302 302 302 302 301 300 300 301 301 299 299 299 298 299 299 296 295 295 295 296 295 295 296 295 295 294 294 294 293 293 292 293 292 292 292 291 291 292 292 292 292 292 292 291 291 291 291 292 291 291 291 291 291 291 291 291 291 291 291 291 291 291 291 291 290 290 290 290 289 290 289 289 289 290 290 290 290 290 290 290 290 289 289 289 289 289 289 289 289 289 289 289 288 288 288
304 303 303 302 302 301 300 300 300 300 299 298 300 300 297 298 298 296 295 296 295 295 294 294 294 294 294 294 294 294 294 294 293 293 293 292 292 292 292 292 292 292 292 292 292 292 291 291 291 291 291 291 291 291 291 291 291 291 290 291 291 291 291 291 291 291 291 290 290 290 289 289 289 289 289 289 289 289 289 289 289 290 290 289 289 289 289 289 289 289 289 288 288 288 288 288 288
304 303 303 303 302 301 301 301 300 300 298 298 299 298 296 297 297 297 295 296 295 295 295 293 294 295 295 293 293 293 293 293 294 293 292 292 292 292 292 292 292 292 292 291 291 292 292 291 291 291 291 291 291 291 291 291 291 290 290 290 290 291 291 291 291 290 290 290 290 290 290 289 289 290 289 289 289 289 289 289 289 289 289 289 289 289 288 288 288 288 288 288 288 288 288 288 288
303 303 303 303 303 302 303 302 301 302 300 299 300 297 297 297 299 299 295 295 295 295 295 294 295 296 295 293 292 293 292 292 293 292 292 292 292 292 292 292 292 292 292 292 291 292 292 292 291 291 291 291 291 290 290 290 290 290 290 290 290 290 290 290 290 290 290 290 290 290 290 289 289 289 289 289 289 289 289 289 289 289 289 289 289 289 288 288 288 288 288 288 288 288 288 288 288
302 302 303 303 304 303 303 303 302 303 301 300 301 299 298 299 301 299 296 295 295 295 295 294 295 295 294 293 292 292 292 292 292 292 292 292 292 292 292 292 292 292 292 292 292 292 292 291 291 291 291 291 291 291 290 290 290 290 290 290 290 290 290 290 290 290 290 290 290 290 290 290 289 289 289 289 289 289 289 289 289 288 288 288 288 288 288 288 288 288 288 288 288 288 288 288 288
302 304 304 303 306 305 303 304 303 304 302 300 302 303 305 303 300 298 296 296 295 295 295 294 295 294 294 294 292 292 292 292 292 292 293 292 293 293 292 292 292 292 292 292 292 292 292 291 291 291 291 291 291 291 291 291 290 290 290 290 290 290 290 290 290 290 290 290 290 290 290 289 289 289 289 289 289 289 289 289 289 288 288 288 288 288 288 288 288 288 288 288 287 287 287 287 287
304 304 304 307 312 307 302 303 303 303 302 301 302 306 311 305 297 297 296 296 296 295 295 294 295 295 295 295 294 293 292 292 292 292 293 293 293 293 293 293 292 292 292 292 292 292 292 291 291 291 291 291 291 291 291 291 291 290 290 290 290 290 290 290 290 290 290 290 290 290 290 290 290 289 289 289 289 289 289 289 289 289 288 288 288 288 288 288 287 287 287 287 287 287 287 287 287
305 305 306 310 313 306 304 305 304 303 302 303 303 305 310 304 297 297 296 296 296 296 295 295 295 295 295 295 295 294 292 293 293 293 293 293 293 293 293 293 292 293 292 292 292 292 292 292 292 291 291 291 291 291 291 291 291 291 291 291 291 290 290 290 290 289 290 290 290 290 290 290 290 289 289 289 289 289 289 289 289 288 288 288 288 288 288 288 287 287 287 287 287 287 287 287 287
306 306 309 310 309 305 305 305 304 303 302 302 303 306 309 305 299 297 297 296 296 296 295 295 295 295 295 295 295 295 293 292 293 293 293 293 293 293 293 292 292 292 292 292 292 292 292 292 292 291 292 291 291 291 291 291 291 291 291 291 291 291 290 290 290 290 290 290 290 290 290 290 290 289 289 289 289 289 289 289 289 289 288 288 288 288 288 288 287 287 287 287 287 287 287 287 287
309 306 307 307 306 305 305 304 303 303 303 303 303 304 307 304 299 298 297 296 296 296 296 295 295 295 295 295 295 295 294 293 293 293 293 293 293 293 292 292 292 292 292 292 292 292 291 291 292 292 292 292 292 292 291 291 291 291 291 291 291 291 291 291 290 290 290 290 290 290 290 290 290 290 289 290 289 289 289 289 289 289 289 288 288 288 288 288 288 287 287 287 287 287 287 287 287
310 308 308 306 303 303 304 304 304 303 303 303 303 303 305 304 299 298 297 297 296 296 296 295 295 295 295 295 295 294 295 294 293 293 293 293 293 293 292 292 292 292 292 292 291 291 291 291 291 292 292 292 292 292 292 292 291 291 291 291 291 291 291 291 291 291 290 290 290 290 290 290 290 290 290 290 290 290 289 289 289 289 289 289 288 288 288 288 288 288 287 287 287 287 287 287 287
308 308 309 307 304 303 302 302 303 302 301 303 303 303 304 303 300 297 297 296 297 296 296 296 295 295 295 295 294 294 294 294 293 293 293 293 293 293 292 292 292 292 292 292 292 292 291 292 291 292 292 292 292 292 292 292 291 291 291 291 291 291 291 291 291 291 291 291 290 290 290 290 290 290 290 290 290 290 289 289 289 289 289 289 289 288 288 288 288 288 287 287 287 287 287 287 287
306 305 306 304 303 303 301 301 302 299 300 303 304 302 301 301 300 298 296 296 297 297 296 296 296 296 295 295 294 294 295 294 293 293 293 293 293 293 292 293 293 293 293 293 293 293 292 292 292 292 293 293 293 292 292 292 292 291 291 291 291 292 291 291 291 291 291 291 291 290 290 290 290 290 290 290 290 290 290 289 289 289 289 289 289 288 288 288 288 288 288 287 287 287 287 287 287
304 306 306 302 300 301 300 300 301 298 301 304 303 302 301 300 300 298 296 296 297 297 298 297 297 296 296 296 295 294 295 293 293 293 293 293 293 293 293 293 293 293 293 293 293 293 293 293 292 293 294 294 293 293 293 292 292 292 291 291 292 292 292 291 291 291 291 291 291 291 291 291 291 290 290 290 290 290 290 290 289 289 289 289 289 289 288 288 288 288 288 287 287 287 287 287 287
304 306 307 303 300 300 299 299 300 298 300 304 303 301 300 298 297 297 296 296 297 298 298 298 298 297 296 297 296 295 294 293 292 293 293 293 293 293 293 293 293 293 294 294 294 294 294 293 293 293 294 294 294 294 293 293 292 292 292 292 292 292 292 291 291 291 291 291 291 291 291 291 291 291 291 291 291 290 290 290 290 290 290 290 289 289 289 289 288 288 288 287 287 287 286 287 287
305 306 308 305 300 300 302 301 300 298 300 305 303 301 300 297 296 296 296 297 297 297 298 298 298 297 297 297 297 297 297 296 293 292 293 293 293 294 294 294 294 294 294 294 294 294 294 294 294 294 294 294 294 294 293 293 293 292 292 292 292 291 291 291 291 291 291 291 291 291 291 291 291 291 291 291 291 291 291 290 290 290 290 290 289 289 289 289 288 288 288 287 287 287 286 286 286
304 304 305 303 299 301 303 301 300 298 300 303 303 301 299 297 296 296 297 298 297 298 299 299 298 297 297 298 297 297 299 298 295 293 292 293 294 294 294 294 295 295 295 295 295 294 294 294 294 294 294 293 293 293 293 293 293 293 292 292 292 291 291 292 291 291 291 291 292 291 291 291 291 291 291 291 291 291 291 290 290 290 290 290 289 289 289 289 289 288 288 287 287 286 286 286 286
304 304 303 301 300 300 300 301 300 299 300 300 302 305 300 297 297 296 296 297 296 297 299 299 298 297 298 298 298 298 298 297 296 295 293 293 294 294 295 295 295 295 295 295 295 294 294 294 294 293 293 293 293 293 293 293 293 293 292 292 292 292 292 292 291 291 292 292 292 291 291 291 291 291 291 291 291 291 291 290 290 290 290 290 289 289 289 289 289 288 288 288 287 287 286 286 286
305 303 301 300 300 299 300 302 301 304 305 300 303 309 303 298 298 297 296 296 295 296 297 298 296 296 296 297 298 298 297 295 295 294 294 294 295 295 296 295 295 295 295 294 294 294 294 294 294 294 293 293 293 293 293 292 292 292 292 292 292 292 291 291 291 291 291 291 291 291 291 291 291 291 291 291 291 291 291 290 290 290 290 290 289 289 289 289 289 288 288 288 287 287 287 286 286
304 302 301 300 298 299 301 302 303 305 306 301 303 309 306 301 299 298 297 296 296 296 297 297 296 295 295 294 296 298 297 297 296 294 294 295 295 295 295 295 295 295 294 294 294 294 294 294 294 294 294 293 293 293 293 292 292 292 292 292 292 291 291 291 291 291 291 291 291 291 291 291 291 291 291 291 291 291 291 290 290 290 290 290 290 289 289 289 289 288 288 288 287 287 287 286 286
302 301 301 300 298 299 300 303 305 304 306 306 304 306 307 303 300 299 297 296 297 297 297 297 296 296 295 295 297 299 299 300 300 297 294 295 296 295 295 295 294 294 294 294 294 294 294 294 294 294 294 293 293 293 293 292 292 292 292 292 292 291 291 291 291 291 291 291 291 290 291 291 290 290 290 290 290 290 290 290 290 290 290 290 290 289 289 289 289 288 288 288 287 287 287 286 286
304 302 299 298 298 299 300 304 305 303 308 310 302 302 306 304 300 299 298 297 298 297 297 298 297 297 296 296 297 299 299 298 297 296 295 295 296 295 295 294 294 294 294 294 294 294 294 294 293 293 293 293 293 293 293 292 292 292 292 292 292 292 291 291 291 291 291 291 291 291 291 290 290 290 290 290 290 290 290 290 290 290 290 290 289 289 289 289 289 288 288 288 287 287 287 286 286
303 300 300 301 300 301 303 304 305 307 312 308 299 300 304 303 301 299 298 298 297 298 298 298 298 298 298 298 298 298 299 297 294 294 295 294 294 294 294 294 294 294 294 293 294 293 293 293 293 293 293 293 293 292 292 292 292 292 292 292 292 292 292 291 291 291 291 291 291 291 291 290 290 290 290 290 290 290 290 290 290 289 289 289 289 289 289 289 288 288 288 288 287 287 287 286 286
301 300 303 305 303 303 305 303 305 312 314 307 300 299 301 303 300 297 298 297 296 298 299 299 299 299 298 299 299 298 299 299 294 292 294 294 294 294 294 293 293 293 293 293 293 293 293 293 293 293 293 292 292 292 292 292 292 292 292 292 292 292 292 291 291 291 291 291 290 290 290 290 290 290 290 290 290 290 290 290 289 289 289 289 289 288 288 288 288 288 287 287 287 287 286 286 286
300 300 303 306 306 305 307 309 311 313 310 304 301 299 301 306 303 298 298 298 296 298 298 297 298 299 299 299 299 298 299 300 295 291 293 294 294 294 293 293 293 293 293 293 293 293 293 293 293 292 292 293 292 292 292 292 292 292 292 292 292 291 291 291 291 291 290 290 290 290 290 290 289 289 289 289 289 289 289 289 289 289 289 289 288 288 288 288 287 287 287 286 286 286 286 286 285
300 301 303 309 313 308 309 314 312 310 307 302 298 299 303 306 303 300 298 298 298 299 299 298 297 298 299 299 299 299 299 301 298 293 291 293 293 293 293 293 293 293 293 293 293 293 293 293 293 292 292 292 292 292 292 292 292 292 292 291 291 291 291 291 290 290 290 290 290 290 289 289 289 289 289 289 289 288 288 288 288 288 288 288 288 287 287 287 287 286 286 286 285 285 285 285 285
300 301 303 307 311 309 309 309 305 306 307 302 297 298 303 303 300 299 298 297 299 299 300 300 299 298 298 298 299 299 300 301 297 291 290 292 292 292 293 293 293 293 293 293 293 293 293 293 292 292 292 292 292 292 292 292 292 291 291 291 291 291 290 290 290 290 290 289 289 289 289 288 288 288 288 288 288 287 287 287 286 286 286 285 285 285 285 285 285 285 285 284 284 284 284 284 284
301 301 301 303 304 304 306 306 305 306 305 302 300 299 302 302 299 299 299 297 297 298 299 299 300 300 299 299 299 300 300 299 295 290 290 292 292 292 293 293 293 293 293 293 293 293 292 292 292 292 292 292 292 292 292 291 291 291 291 290 290 290 290 289 289 289 289 288 288 288 287 287 287 287 287 286 286 286 285 285 284 284 283 283 283 283 283 283 283 283 283 283 283 283 283 284 284
302 301 302 303 300 300 302 301 301 302 302 305 306 302 301 300 298 297 298 296 296 297 298 297 298 299 300 299 299 300 299 298 297 294 290 291 293 293 293 293 293 293 293 293 293 293 292 292 292 292 292 292 292 291 291 291 290 290 290 290 289 289 289 288 288 288 287 287 287 286 286 286 286 285 285 284 284 283 283 282 282 282 281 281 282 282 282 282 282 282 282 282 283 283 283 283 284
303 303 302 299 297 299 301 300 298 298 302 305 304 301 300 299 298 297 296 295 296 298 298 297 297 298 298 298 298 299 298 297 297 293 290 291 292 292 293 293 293 292 292 293 292 292 292 292 292 292 292 291 291 291 290 290 290 290 289 289 288 288 288 287 287 286 286 286 285 285 284 284 283 283 282 282 282 281 281 281 281 281 281 281 281 281 281 281 281 282 282 282 282 282 282 283 283
301 303 299 295 298 300 300 301 302 303 305 305 301 299 300 300 299 296 294 295 297 299 298 297 297 297 296 296 297 297 296 296 294 291 290 291 292 292 293 293 293 293 293 293 293 292 292 292 292 291 291 291 290 290 290 289 289 289 288 288 287 287 286 286 285 285 284 284 283 283 282 281 281 281 280 280 280 280 280 280 280 280 280 280 280 280 280 280 281 281 281 281 281 281 281 281 281
299 299 297 297 302 304 301 301 303 303 304 305 302 298 298 300 299 297 295 296 297 298 297 296 296 295 295 295 296 296 296 296 295 292 290 290 291 292 292 293 293 293 292 292 292 292 292 292 291 291 290 290 289 289 289 289 288 288 287 286 286 285 285 284 283 283 282 281 281 280 280 280 280 279 279 279 279 279 279 279 279 279 279 279 279 280 280 280 280 280 280 280 280 280 280 280 280
301 300 299 301 302 300 298 299 300 301 302 304 303 302 302 302 301 299 297 297 298 297 296 296 296 295 295 295 294 295 295 295 295 293 290 290 291 292 292 293 292 292 292 292 292 292 291 291 290 290 290 289 289 289 288 287 287 286 286 285 284 284 283 282 281 280 280 279 279 279 279 279 279 278 278 278 278 278 278 278 279 279 279 279 279 279 279 279 279 279 279 279 279 280 280 280 280
301 301 299 301 301 298 298 298 298 299 303 303 302 304 306 303 300 300 299 298 297 296 295 295 295 295 294 294 294 294 294 293 294 292 289 290 291 292 292 292 292 292 292 292 292 292 291 290 290 289 289 289 288 288 287 286 285 285 284 283 282 281 280 280 279 279 279 278 278 278 278 278 278 278 278 278 278 278 278 278 278 278 278 278 278 278 278 278 278 278 278 278 278 279 279 279 279
297 298 297 299 300 301 302 300 298 298 299 301 300 302 304 301 298 298 298 299 297 295 295 295 294 294 294 294 294 293 293 293 293 290 289 290 290 291 291 291 292 292 292 292 292 291 290 290 289 289 288 288 287 286 285 285 284 283 282 281 280 279 278 278 278 278 278 278 278 277 277 277 277 277 277 277 277 277 276 276 276 276 276 276 277 277 277 277 277 277 277 277 277 277 278 278 278
Wind_Speed
10 8 6 3 2 1 1 2 1 2 3 2 2 1 3 5 3 3 3 3 3 3 3 6 9 8 8 9 13 12 9 6 2 2 3 5 10 11 21 24 26 28 26 29 33 36 37 38 32 21 18 18 20 21 20 19 18 17 17 17 15 13 11 11 12 13 13 13 13 14 15 15 14 14 12 11 10 8 7 6 6 5 5 4 3 3 2 1 1 2 2 2 2 2 2 3 4
8 6 3 2 1 1 1 3 2 1 4 2 2 2 3 4 4 4 3 3 5 6 4 7 12 14 12 13 11 8 9 8 4 2 1 11 11 10 23 23 26 27 25 29 31 35 35 34 36 31 25 24 25 24 22 21 20 19 19 19 18 16 15 13 14 15 16 16 16 16 17 17 16 17 15 14 14 12 12 10 9 8 7 6 5 4 3 2 0 1 2 2 3 3 3 3 5
6 4 3 0 1 2 0 3 2 1 4 3 2 3 3 4 5 5 5 7 10 11 7 6 10 9 5 8 7 4 5 5 7 5 3 13 11 13 23 21 24 26 25 29 31 33 33 31 33 33 32 30 31 29 27 26 23 23 23 24 24 22 21 20 19 18 17 18 18 18 18 18 18 17 17 16 15 14 14 13 13 13 12 10 7 5 4 2 0 1 2 2 4 4 3 4 5
4 4 3 2 1 3 2 3 2 3 4 3 2 3 3 5 6 7 6 7 8 7 4 3 6 6 6 10 7 4 5 3 8 7 3 11 13 16 21 19 22 25 26 28 31 33 30 29 30 30 31 33 33 31 30 29 27 27 26 26 26 25 24 23 23 21 19 19 18 18 17 17 18 18 17 17 17 16 15 14 14 14 15 16 13 10 7 4 2 1 3 3 3 3 2 5 6
2 2 2 2 2 1 2 3 2 4 2 3 3 2 3 6 7 8 6 7 4 3 2 3 4 1 6 9 4 2 3 4 6 7 4 10 15 16 17 17 19 23 26 27 30 31 29 29 30 29 28 31 31 30 31 30 28 28 28 28 28 27 26 24 23 23 21 21 19 18 18 16 16 17 17 17 17 16 16 15 14 13 13 14 14 14 13 9 5 4 3 4 3 3 3 6 7
1 2 2 3 2 1 2 3 3 5 2 1 3 2 2 7 8 10 8 9 8 8 5 4 6 5 6 6 4 3 2 2 4 7 6 11 16 15 14 15 18 19 23 26 29 30 29 31 32 29 29 30 29 29 29 28 28 27 26 26 26 26 25 23 22 21 20 19 19 19 19 17 15 16 17 17 17 16 15 15 15 14 13 12 11 13 15 14 11 7 5 4 4 4 4 6 8
2 3 2 3 2 2 4 4 4 4 4 4 2 4 3 6 6 6 5 5 6 8 7 5 8 9 5 2 4 3 3 6 4 7 10 12 15 14 13 15 17 17 20 24 27 28 28 30 31 30 31 31 30 29 28 27 27 26 25 23 22 21 21 20 19 19 18 17 18 17 18 18 17 16 17 18 19 20 18 16 14 13 13 11 10 11 12 14 14 11 9 6 5 5 6 8 8
2 1 1 4 3 4 5 4 4 3 4 5 4 5 6 4 2 3 5 4 3 5 5 3 5 7 5 2 4 1 1 5 6 9 11 12 12 11 13 16 17 18 20 23 25 26 27 29 29 30 32 32 30 29 28 26 26 27 26 24 22 21 20 19 19 18 18 18 17 16 15 16 17 17 17 17 18 19 20 20 17 15 15 12 9 10 10 12 13 12 13 12 7 5 6 8 10
3 3 1 4 4 4 4 4 4 3 4 5 6 7 7 6 4 5 8 7 4 6 7 2 2 5 5 5 5 2 2 6 7 8 10 10 10 11 16 19 18 19 21 23 25 26 27 28 28 29 30 31 30 30 29 27 27 27 27 26 25 24 23 22 22 20 19 18 18 18 17 17 16 17 17 17 17 16 18 19 19 18 19 17 13 12 11 12 13 12 13 14 13 10 7 4 4
3 3 2 3 4 5 4 3 3 3 4 4 6 7 6 6 7 7 8 8 5 6 8 5 6 9 9 6 4 2 5 8 6 7 8 7 10 13 17 19 19 20 23 24 26 27 28 29 28 28 29 30 30 29 29 29 28 28 27 27 26 26 25 25 24 23 20 19 19 19 19 19 17 16 16 17 17 16 16 17 18 17 17 17 15 15 14 13 13 13 12 12 13 11 10 10 6
3 3 3 4 4 4 3 3 4 3 3 3 4 7 5 4 6 8 7 7 6 5 4 6 9 10 8 5 2 4 9 10 8 8 9 8 10 13 15 18 20 22 23 25 26 28 30 30 29 29 29 29 29 29 29 29 28 28 27 27 27 26 26 26 25 25 24 22 21 21 20 20 18 17 17 17 17 16 16 17 18 17 16 16 16 15 15 14 14 13 12 11 11 10 8 8 6
3 3 4 5 3 3 3 4 4 2 3 4 4 5 4 5 6 5 5 7 5 6 5 6 6 8 5 5 2 5 11 11 11 11 10 11 12 13 16 17 19 22 23 24 26 29 31 31 31 31 31 30 29 29 28 28 28 27 27 27 27 27 26 26 26 26 25 25 24 23 23 22 21 19 18 18 18 18 17 17 19 19 17 16 16 16 16 15 15 14 14 13 11 10 8 8 6
3 1 5 4 2 3 4 4 2 2 3 3 2 4 4 4 6 3 3 6 5 5 6 8 4 5 5 4 3 5 10 9 9 9 8 9 11 13 15 17 19 21 24 25 27 29 30 31 31 31 31 31 31 31 30 29 29 27 27 27 26 26 26 26 26 27 26 25 24 24 24 24 23 21 20 20 20 19 18 17 18 19 18 17 16 16 16 16 16 15 15 14 14 12 10 9 8
3 2 5 3 2 3 4 3 2 3 1 2 1 3 4 4 4 3 4 6 7 4 3 8 2 3 5 4 3 3 5 7 7 7 6 7 10 13 14 17 20 21 24 25 27 28 29 29 29 29 29 29 29 29 30 30 29 28 28 27 27 26 25 25 26 26 26 25 24 24 23 23 23 22 21 21 21 20 19 18 18 19 19 18 18 17 17 16 16 16 15 15 14 13 12 11 10
3 3 5 4 2 2 2 3 4 4 3 2 2 2 6 5 3 4 5 4 4 4 3 7 7 2 2 3 3 2 4 6 8 8 8 10 11 15 17 19 21 22 24 25 26 27 26 26 25 25 25 25 24 24 25 25 25 25 25 25 25 25 24 25 24 25 25 25 25 24 23 22 22 23 22 21 21 22 22 21 20 20 20 19 19 19 19 18 16 16 15 15 14 13 13 12 12
3 4 5 4 2 2 2 2 3 4 2 3 3 3 7 7 6 4 5 2 3 6 5 6 8 3 3 3 3 4 5 6 9 10 9 11 13 16 18 20 22 22 23 23 23 23 22 22 21 21 22 22 21 21 21 21 22 21 21 22 22 23 22 22 22 22 23 24 24 24 23 22 22 23 23 23 22 23 23 23 22 21 21 20 20 20 21 20 19 18 17 16 14 13 13 12 12
3 5 6 4 2 2 2 2 3 3 3 3 2 1 6 4 4 5 7 10 6 7 8 5 8 8 6 6 7 8 8 8 10 10 10 13 14 17 20 21 22 23 23 22 22 22 21 20 19 19 19 20 19 20 20 21 21 21 21 21 21 21 22 21 20 19 20 20 21 21 23 23 23 24 24 24 23 23 22 22 23 23 22 22 20 20 21 22 22 20 19 18 16 15 13 12 12
5 4 4 4 2 1 1 3 3 2 4 2 1 3 7 5 1 2 5 11 7 7 8 6 10 11 11 12 12 11 10 10 11 12 13 14 14 18 21 22 23 24 25 25 25 25 24 24 22 21 21 21 20 21 20 20 20 20 21 21 21 21 22 21 20 19 18 18 18 18 19 20 21 21 22 23 23 23 22 21 22 22 22 22 21 20 21 22 23 23 22 20 19 17 15 14 14
5 4 5 4 2 2 2 2 2 4 6 4 4 4 5 5 2 1 3 5 5 7 6 5 9 9 10 13 14 14 14 14 14 15 14 13 13 15 18 20 21 22 23 23 23 23 24 24 24 24 24 23 23 23 23 22 22 22 22 22 22 23 23 23 23 22 20 19 18 18 18 17 17 17 18 18 19 20 21 22 22 22 22 22 21 21 20 21 22 24 24 23 21 20 19 18 18
5 4 6 3 2 4 6 7 6 5 7 7 5 4 6 3 1 3 5 6 6 5 3 3 6 6 6 8 11 14 15 16 14 13 13 13 13 14 15 17 18 18 19 19 19 20 20 21 21 22 22 22 23 23 23 23 23 22 23 23 23 23 23 23 24 24 23 22 20 20 20 19 18 17 17 16 17 18 19 20 21 22 22 22 23 22 22 22 23 23 25 25 24 23 23 22 21
4 4 5 2 2 5 7 7 8 6 7 7 5 6 6 4 4 4 4 6 5 2 2 3 6 7 6 7 9 11 11 11 10 10 12 13 13 14 14 15 15 15 16 16 17 18 19 19 18 18 20 21 21 22 22 21 20 20 21 21 21 21 22 22 22 23 23 23 22 21 20 20 20 19 19 19 19 20 20 20 21 22 22 23 24 23 23 24 25 25 26 27 27 27 26 25 24
4 5 4 3 4 6 4 5 7 5 6 6 6 6 4 3 5 5 3 5 2 1 4 5 7 7 7 8 9 9 9 9 10 12 13 13 13 13 13 13 12 13 13 14 16 17 17 17 16 15 16 18 19 19 19 19 19 19 19 19 19 20 21 21 21 21 22 22 22 21 20 21 20 20 20 20 20 20 21 20 21 22 23 23 23 24 24 25 26 26 27 28 28 28 27 26 26
6 5 6 7 6 5 3 4 5 5 7 6 4 4 2 4 5 5 6 6 3 4 7 6 8 9 11 10 10 9 8 10 11 12 12 11 11 10 10 11 11 12 12 13 14 15 14 13 13 13 14 15 15 15 16 16 17 17 17 16 16 17 17 18 20 20 20 20 21 21 21 21 21 21 20 20 20 19 20 20 20 21 23 24 24 24 24 25 25 26 27 28 28 29 28 27 27
10 6 4 7 8 6 4 5 7 8 9 4 3 6 4 5 5 4 7 6 4 7 9 10 11 12 12 10 9 8 8 9 9 9 8 8 7 8 9 9 10 10 11 11 12 13 13 12 11 11 12 12 13 13 13 14 14 15 15 14 14 15 15 16 17 18 19 19 20 21 21 20 20 21 21 20 19 19 19 19 19 20 21 23 24 24 24 24 25 25 26 28 29 29 29 29 28
8 7 3 4 5 6 6 7 8 8 7 5 8 8 4 5 6 4 4 4 5 8 11 12 13 12 10 8 8 8 8 8 7 7 7 7 7 7 8 8 8 8 9 9 10 12 13 13 12 12 11 11 11 11 11 12 13 13 14 14 13 13 13 14 15 16 17 18 19 20 21 20 19 20 21 21 19 19 19 18 19 19 20 21 23 24 24 24 24 25 25 27 28 28 29 29 28
2 6 4 5 5 4 6 7 6 6 3 5 10 7 5 6 6 4 3 5 5 8 9 8 9 8 6 6 8 10 10 9 9 8 8 8 7 7 7 7 7 7 6 6 7 9 11 11 12 13 13 12 11 11 11 12 12 13 14 15 14 13 13 13 13 14 16 17 18 19 20 21 20 18 19 21 20 19 19 19 19 19 19 20 22 23 23 23 24 25 25 26 27 28 28 27 28
2 8 6 6 7 3 5 5 3 4 2 4 8 5 4 2 2 2 3 4 5 6 6 5 6 5 4 5 7 10 11 11 11 10 8 7 6 6 6 6 6 6 6 5 6 8 9 10 11 12 13 14 13 13 13 12 13 14 14 14 14 13 13 13 13 14 15 16 17 18 19 20 21 19 19 20 21 21 20 20 20 19 19 19 21 22 23 23 24 24 24 25 27 28 28 27 28
6 9 8 6 6 4 5 5 2 2 2 3 9 6 2 3 2 3 6 5 5 6 5 4 5 5 4 4 5 7 9 10 10 9 7 6 5 5 5 4 5 6 7 7 6 6 8 9 10 10 11 12 13 14 14 14 13 14 14 15 14 14 14 14 14 15 15 16 16 18 18 19 20 20 20 19 20 21 21 21 21 21 20 20 20 22 23 23 24 24 25 26 27 28 29 28 28
6 6 8 4 5 6 5 3 1 2 2 4 6 4 3 4 2 5 8 7 6 7 6 5 5 5 5 4 4 5 7 9 9 8 7 6 6 5 4 3 3 4 5 6 6 6 8 9 9 10 10 11 12 13 14 15 14 14 15 15 16 15 14 14 15 15 16 16 17 18 19 19 20 20 21 21 20 20 21 22 22 22 22 22 22 22 23 24 25 26 27 27 28 29 30 31 31
3 3 6 2 5 5 5 4 2 3 4 5 4 2 4 4 3 6 7 7 8 7 6 5 5 5 5 5 4 4 7 10 10 9 9 7 7 5 3 2 2 3 3 4 5 6 7 8 9 9 10 11 11 12 13 14 15 15 16 16 17 17 16 16 16 16 16 15 17 18 19 20 21 21 22 22 22 21 22 23 24 24 24 24 24 24 24 25 25 26 27 28 29 30 30 31 31
3 3 3 2 3 2 6 4 4 3 1 3 6 1 5 5 5 7 6 7 8 7 6 5 5 4 4 4 4 4 6 10 11 10 9 7 5 4 2 1 0 2 3 4 5 7 8 9 10 10 10 10 11 12 13 14 15 17 17 18 18 19 19 19 19 18 18 17 17 18 19 21 21 22 22 24 25 24 23 24 25 26 26 26 27 27 26 26 26 27 27 28 30 30 30 31 31
4 3 3 3 3 1 6 4 4 3 2 3 6 1 4 4 7 8 6 7 8 7 6 5 5 5 4 4 4 4 4 7 9 8 7 5 4 2 1 1 1 2 3 5 6 8 9 10 11 12 11 12 12 12 13 14 16 17 18 19 19 20 20 21 21 21 20 19 19 20 20 21 22 23 24 26 27 27 25 25 26 27 27 28 29 29 29 28 27 28 28 28 30 31 31 32 32
4 4 1 3 4 3 4 2 3 3 2 4 3 1 3 3 5 8 6 6 7 7 6 5 5 5 5 4 4 4 4 4 6 7 6 4 3 2 2 3 3 4 5 6 8 10 11 12 12 13 14 14 15 15 15 16 17 18 19 19 20 21 21 22 22 22 22 20 20 20 20 21 23 25 27 28 29 29 28 27 28 28 29 29 30 31 31 31 30 30 30 29 29 30 31 32 32
4 4 2 3 3 2 3 3 5 7 3 4 4 1 4 4 4 7 6 6 7 6 6 5 5 5 5 5 4 4 4 4 5 8 7 5 4 4 4 5 6 6 7 9 10 12 13 14 14 15 16 17 18 18 18 18 19 19 20 20 21 22 22 23 24 24 24 22 22 22 21 22 24 25 28 29 30 30 29 29 29 30 31 31 31 32 33 33 32 31 31 32 31 30 31 31 32
2 3 2 3 4 3 4 4 5 8 7 5 4 2 6 7 3 6 6 5 7 5 5 4 4 5 5 5 5 5 5 5 9 12 11 9 8 7 7 7 8 8 9 10 11 13 15 16 16 17 18 19 19 20 20 21 21 22 22 22 22 23 24 25 25 26 26 26 25 25 24 24 25 26 28 29 30 31 30 30 31 31 33 34 33 33 34 35 34 33 32 32 33 32 31 31 32
3 3 1 2 4 2 3 4 3 8 7 5 5 5 8 8 4 6 6 4 6 4 3 4 4 4 5 5 5 6 5 7 13 16 14 13 12 10 10 9 9 9 10 11 12 14 15 17 17 18 19 20 21 22 22 22 22 23 24 24 25 26 27 27 28 28 28 29 29 29 29 29 28 28 29 30 31 31 31 32 32 33 35 36 35 35 36 36 36 35 33 33 33 32 33 32 31
3 2 3 3 4 4 5 3 3 8 6 4 4 6 8 9 7 5 5 4 5 4 3 4 5 4 5 6 6 7 7 8 12 15 15 15 13 11 11 10 10 11 11 12 13 14 15 16 18 20 21 22 23 24 25 24 24 25 25 25 26 27 28 28 29 30 31 31 32 32 32 32 32 31 31 32 31 31 32 33 34 35 37 37 36 36 36 37 36 35 35 34 32 31 32 31 30
2 4 3 4 4 5 6 3 3 7 4 3 4 7 9 11 11 2 6 6 4 5 5 5 6 6 5 6 7 7 5 5 8 12 15 15 13 12 12 12 12 13 13 14 15 16 17 18 19 22 23 25 26 27 28 27 27 27 27 26 27 27 28 29 30 31 32 32 33 34 34 34 34 34 34 34 34 34 34 34 36 37 38 38 37 37 37 37 37 36 35 34 33 31 30 30 30
4 3 3 3 3 5 6 3 5 7 3 3 5 7 8 10 10 7 6 4 1 3 2 2 4 5 5 6 7 6 4 3 6 11 14 14 13 13 13 14 14 15 16 16 17 17 19 20 21 23 25 27 29 30 31 31 31 31 29 29 28 28 28 29 30 31 32 33 34 34 35 35 36 36 36 37 37 37 37 37 38 39 39 38 38 38 37 37 36 36 35 34 33 32 30 29 27
4 4 4 2 3 3 3 3 7 8 1 2 3 5 6 8 9 9 6 4 3 3 5 5 3 4 6 6 6 5 6 5 5 7 11 13 14 14 15 15 15 16 17 18 18 19 20 21 21 23 25 27 28 29 30 30 31 31 31 30 29 29 29 30 31 33 34 35 36 36 37 37 37 37 38 38 39 39 39 39 40 40 40 39 38 38 37 37 37 36 35 34 32 30 29 30 28
3 2 5 1 2 1 3 5 7 7 1 1 3 4 5 8 9 8 7 7 7 7 8 8 7 6 5 6 6 5 5 5 6 6 9 13 15 15 15 16 16 18 19 19 18 18 18 18 20 22 24 26 27 28 29 29 28 29 29 30 30 29 29 31 31 33 35 36 37 38 39 39 39 39 39 39 39 39 39 39 40 40 40 39 39 38 38 38 37 37 36 36 34 31 31 32 30
4 1 4 4 1 2 5 7 5 4 2 2 4 5 3 6 7 6 6 6 7 6 8 9 9 8 7 7 6 4 2 2 4 5 10 13 14 14 15 15 16 17 16 14 13 13 15 19 22 23 24 24 26 28 29 29 28 28 28 28 29 28 28 30 31 32 35 36 37 38 38 39 39 39 39 39 39 39 39 40 40 40 40 39 38 38 38 38 37 37 37 36 36 35 34 32 31
3 1 4 5 2 3 5 5 3 3 1 3 4 5 1 4 5 6 5 6 7 7 8 9 8 9 9 7 5 3 1 1 2 6 9 9 9 10 11 11 10 11 11 12 13 16 20 24 26 25 25 26 27 28 27 27 27 27 27 26 27 27 27 29 31 32 33 34 35 36 36 37 37 38 38 38 38 38 38 38 39 39 40 39 39 38 38 38 38 38 37 36 37 37 35 32 32
3 1 4 1 4 4 3 1 2 1 1 4 5 4 3 1 3 5 6 5 8 8 8 9 8 9 9 8 6 6 4 2 2 4 5 6 7 7 8 9 9 11 13 16 18 21 24 26 27 27 27 26 27 27 27 27 27 27 27 27 27 27 28 29 31 32 32 33 34 34 35 36 36 36 36 36 36 36 37 37 37 38 39 39 39 38 38 38 38 37 37 36 36 36 35 34 34
5 3 0 5 4 3 3 3 1 1 2 4 6 5 3 1 3 5 5 5 6 7 6 7 7 7 8 8 7 6 5 4 3 4 6 8 9 9 10 12 14 17 19 21 23 25 26 26 26 26 25 26 26 25 26 26 26 27 28 29 29 30 30 31 33 33 34 35 35 36 36 36 36 36 36 37 36 36 35 36 37 37 38 39 39 39 39 39 38 37 37 36 36 36 36 35 35
7 3 3 3 1 2 3 3 1 2 5 2 4 5 2 2 3 4 3 4 3 5 5 5 6 6 6 6 6 5 5 5 5 6 7 9 10 11 14 16 19 22 23 24 25 25 25 25 25 24 24 25 25 25 26 26 27 28 29 29 30 31 32 33 33 33 34 34 34 34 35 35 36 37 37 38 38 38 37 37 37 36 37 38 38 38 38 38 37 36 36 36 35 36 36 35 35
6 4 4 4 4 3 3 2 2 4 4 2 2 2 1 1 3 3 1 0 2 3 4 5 5 6 6 5 5 5 5 5 6 9 11 12 14 16 19 20 22 23 24 25 25 24 24 24 24 24 25 25 26 27 27 28 28 29 29 31 31 32 33 33 32 31 31 32 32 32 33 33 33 33 34 35 36 36 37 37 38 38 38 38 37 37 36 36 35 34 34 33 33 34 35 35 36
5 4 2 2 2 3 3 4 4 5 2 4 2 2 2 1 3 4 3 3 3 3 3 5 6 6 5 5 5 5 5 5 5 7 10 13 15 18 20 21 23 24 25 25 25 25 25 26 26 26 27 28 28 29 29 29 29 29 30 31 32 33 33 33 32 32 32 32 32 33 32 31 31 31 31 31 31 32 32 33 34 35 35 35 35 34 33 33 32 32 31 32 32 33 34 34 34
7 6 4 4 2 3 2 3 3 1 3 3 1 3 2 2 4 4 3 5 4 5 5 5 5 6 5 5 5 5 5 5 5 6 8 11 14 16 19 21 23 24 25 26 26 27 27 27 27 27 29 30 30 30 30 29 29 30 31 32 32 33 33 33 32 32 33 33 33 33 32 31 31 32 31 31 31 30 30 29 29 29 30 30 31 31 31 32 32 33 33 33 34 33 33 34 34
7 5 3 3 3 4 2 3 2 2 5 3 1 2 1 2 3 4 5 4 5 6 5 5 6 6 6 6 6 5 5 5 5 6 9 11 14 16 18 19 22 24 25 26 26 26 27 27 28 28 30 31 31 30 30 30 31 31 31 31 32 32 32 32 32 32 32 32 32 32 32 33 33 33 33 32 32 31 30 30 30 31 31 32 33 34 34 35 35 36 36 36 36 36 35 35 35
4 1 2 3 4 3 1 2 1 2 5 5 4 2 2 1 2 4 5 4 4 4 5 5 5 5 5 6 5 5 6 6 5 6 10 13 15 17 18 20 22 24 26 26 27 26 26 27 28 29 30 30 30 30 30 31 31 30 30 30 30 29 30 30 30 30 31 32 33 33 33 33 33 33 33 33 34 34 34 34 34 35 36 37 37 37 37 36 36 36 35 36 36 36 35 35 35
2 1 4 2 2 3 1 2 3 2 2 4 3 1 3 2 2 2 1 2 4 4 5 5 5 6 5 5 6 5 5 6 5 6 9 14 16 17 18 20 22 23 24 25 26 26 26 26 27 28 28 28 29 29 29 29 29 29 29 28 28 28 29 30 31 32 32 33 33 33 33 34 34 34 35 36 36 37 37 38 38 39 39 38 37 37 36 35 35 35 34 34 34 33 32 32 33
2 3 2 2 2 5 2 2 2 3 2 3 2 2 3 2 2 2 4 2 5 5 5 5 6 7 6 5 6 5 6 6 6 7 10 14 16 18 19 20 21 22 23 24 25 25 25 26 27 27 27 27 28 28 28 28 28 28 28 28 28 29 30 31 32 33 33 33 33 33 34 35 36 37 37 38 39 39 40 40 40 40 39 38 37 36 36 35 35 34 33 33 32 32 31 31 31
2 2 1 1 2 4 3 1 4 5 1 3 3 3 4 2 1 2 1 4 6 6 5 5 6 6 6 6 6 6 7 7 7 10 13 16 17 18 20 21 21 22 23 24 26 26 26 26 27 27 27 27 27 27 27 28 28 28 28 29 30 31 31 31 32 33 34 34 35 35 36 36 37 38 38 39 40 41 41 40 40 39 38 38 37 36 36 36 35 35 34 34 34 34 33 34 34
4 1 1 2 3 2 2 2 1 2 2 4 5 4 3 2 2 3 4 5 5 6 6 5 6 6 6 7 7 8 8 7 7 8 11 15 18 19 21 21 21 22 24 26 26 25 25 25 25 25 25 25 26 27 28 29 29 29 30 30 31 31 31 32 33 33 34 35 35 35 36 37 38 38 38 39 40 41 41 40 40 39 38 38 37 37 37 37 36 36 36 36 35 35 34 35 35
3 3 3 2 3 2 1 1 2 1 2 3 4 4 2 4 4 5 6 6 5 6 5 4 6 7 6 6 7 7 7 7 7 7 10 15 19 20 21 22 22 22 24 25 24 25 25 24 24 24 25 26 28 29 30 31 31 31 31 31 31 32 33 34 34 34 34 34 34 34 35 36 38 38 38 39 39 38 38 38 38 38 37 37 37 37 36 35 35 35 34 34 34 34 33 33 34
3 4 4 3 1 1 1 1 2 3 1 1 2 4 4 5 3 5 6 6 5 5 3 4 6 7 7 7 7 7 7 7 7 7 11 16 19 20 21 22 22 22 23 24 24 24 23 23 23 23 25 27 29 30 31 31 30 30 30 32 33 34 35 35 35 34 34 33 34 34 35 37 38 37 36 36 36 36 37 37 38 38 38 37 37 37 36 36 35 35 35 35 34 34 33 34 34
1 1 2 1 0 3 3 2 2 1 2 3 2 3 7 5 2 4 5 4 5 5 2 4 7 7 8 8 7 8 8 7 8 9 13 17 18 19 20 21 21 22 24 24 23 23 21 21 22 23 26 28 29 30 29 29 30 30 32 33 35 35 35 35 35 34 33 33 34 34 35 36 37 36 36 36 37 39 39 39 40 40 40 40 40 39 39 39 38 38 38 38 37 36 36 37 36
Wind_Direction
310 316 329 319 295 270 360 81 81 337 79 69 326 43 360 348 50 68 94 157 114 53 19 45 42 56 87 102 111 100 57 62 66 4 137 339 344 350 359 4 1 357 357 11 23 30 29 26 34 59 87 93 90 92 93 91 88 86 86 89 88 85 82 75 68 66 63 64 63 61 63 59 57 55 53 49 40 39 45 43 33 33 29 25 15 8 3 354 13 346 315 306 293 288 273 234 177
314 323 334 308 262 139 206 84 103 344 62 65 351 44 333 353 39 37 59 105 105 133 136 77 70 73 92 113 117 99 51 54 30 346 152 349 351 3 5 5 2 4 6 18 32 35 33 33 39 49 66 85 89 83 84 84 81 81 79 81 80 78 77 74 72 71 72 71 71 70 67 65 63 58 55 53 49 49 49 43 35 30 24 16 6 6 8 352 43 331 306 303 301 301 285 234 182
321 333 352 18 188 72 130 50 95 117 79 116 31 356 345 50 63 53 76 107 126 143 138 86 71 46 57 85 50 52 59 53 32 2 316 357 359 350 358 5 8 13 16 25 37 39 35 35 43 49 54 68 83 80 78 80 80 81 80 82 80 80 78 76 77 74 75 72 73 73 70 70 67 61 57 55 51 49 49 47 43 38 32 24 12 7 8 360 59 270 275 285 294 298 277 215 186
317 332 339 63 108 35 58 60 107 120 109 162 97 7 29 94 97 74 74 103 139 157 142 73 60 12 33 57 15 50 67 25 28 11 319 354 350 335 346 4 10 14 23 33 41 41 35 34 45 51 51 57 69 72 71 74 77 76 76 78 76 75 73 71 70 68 69 68 70 68 67 70 64 62 62 59 55 49 46 43 42 42 38 34 31 23 11 6 9 311 278 279 293 292 245 193 190
306 342 343 60 103 95 98 79 57 92 122 193 117 42 69 106 104 93 79 71 64 31 75 105 91 28 61 53 354 35 352 315 17 12 344 351 351 339 343 6 13 11 21 36 44 44 38 40 47 49 55 55 58 64 64 65 66 67 66 66 65 64 62 63 63 61 62 60 59 55 55 60 54 54 56 57 56 53 50 45 39 38 37 35 35 31 27 23 8 338 304 286 287 269 221 187 190
10 77 51 49 103 157 93 80 68 84 29 327 99 346 106 121 113 110 102 82 58 34 37 76 111 126 86 63 50 62 338 345 3 2 7 358 358 350 351 12 16 12 21 36 47 48 43 47 47 45 54 55 55 59 61 61 59 60 60 59 58 57 57 58 58 57 57 54 52 48 45 46 43 40 43 46 44 43 46 46 40 34 32 27 25 28 32 30 26 13 342 302 279 261 231 207 205
63 70 44 52 48 44 87 100 92 93 15 18 50 356 81 127 127 114 98 83 55 36 40 66 119 120 78 81 94 83 61 61 31 18 23 9 6 2 11 25 23 22 29 36 47 51 48 53 52 49 54 57 57 59 62 61 58 57 56 54 52 52 53 53 53 52 55 56 54 49 43 41 38 34 36 39 39 38 36 38 37 34 30 25 22 27 31 29 32 30 17 354 295 267 249 227 216
68 73 68 86 63 35 83 97 71 84 13 21 29 24 41 60 93 75 58 55 40 28 41 121 137 95 56 63 89 191 170 38 25 31 22 17 19 19 31 41 37 34 38 43 50 54 54 59 62 60 58 58 58 60 64 65 64 61 59 57 55 57 58 58 58 56 56 57 56 52 48 45 43 42 41 38 38 39 38 36 33 31 27 24 23 30 33 27 29 31 29 23 2 315 272 248 237
59 50 107 88 82 62 78 83 58 67 35 30 31 34 34 33 60 78 79 75 86 52 26 245 205 90 106 87 80 194 247 351 357 26 24 24 35 45 42 42 44 41 46 52 55 57 60 64 68 68 65 62 61 61 62 65 68 66 65 63 62 64 63 64 64 63 61 57 57 56 54 54 52 50 48 45 42 40 41 39 35 32 30 29 29 30 31 28 26 26 29 29 26 21 11 355 278
40 33 128 86 81 98 83 68 53 68 49 45 35 24 23 35 67 76 87 85 85 71 45 43 70 110 131 93 87 117 28 7 360 34 44 44 39 43 40 39 46 48 51 55 56 57 63 69 71 71 70 68 67 65 62 64 67 67 69 67 66 66 65 65 64 65 67 64 62 61 59 59 56 51 50 50 49 47 46 42 37 34 32 31 31 31 28 26 26 25 31 34 31 29 28 35 39
39 349 94 80 71 99 95 81 70 69 26 26 28 17 15 19 67 66 71 85 66 74 52 33 78 114 117 87 98 72 42 41 63 70 69 65 44 38 42 46 49 51 52 54 58 59 63 69 71 71 72 73 73 70 67 66 68 69 71 70 70 69 67 65 64 65 67 68 66 65 62 59 57 53 52 52 52 52 52 49 42 37 35 32 29 28 25 22 22 23 26 26 28 30 20 19 25
84 338 58 76 66 92 98 99 88 75 12 11 10 357 2 11 59 63 60 81 55 73 33 352 128 136 93 92 114 68 46 52 82 85 74 63 54 51 53 54 53 53 54 57 61 63 64 66 68 68 69 71 73 72 70 69 71 73 73 73 73 72 70 66 65 67 67 68 66 66 64 61 60 57 55 54 53 52 52 52 47 42 39 37 34 31 28 24 21 19 19 16 17 22 18 14 11
107 103 79 75 32 103 102 101 101 65 17 5 14 344 351 35 52 42 69 73 26 68 31 343 164 137 78 103 93 70 41 51 93 83 68 62 59 57 55 57 59 62 63 64 64 64 66 66 65 65 66 68 69 70 68 66 68 70 71 72 72 71 71 67 65 66 67 67 66 66 64 62 61 59 58 55 53 51 50 52 49 45 41 40 38 35 33 30 27 22 18 16 15 16 14 13 15
113 115 91 96 26 97 109 113 127 81 86 219 140 4 17 46 38 27 58 68 24 30 15 349 1 93 102 134 102 89 28 52 96 86 73 76 69 61 60 63 65 67 67 65 65 66 67 65 64 64 64 65 65 66 64 62 61 62 64 65 65 66 66 65 65 64 63 63 62 63 62 62 61 59 58 56 54 51 49 49 48 46 42 41 40 38 35 32 31 27 23 20 17 17 15 13 12
106 114 82 100 53 61 114 146 149 126 169 199 126 77 61 32 6 49 33 76 60 357 338 9 9 38 126 150 131 90 29 54 90 107 90 74 69 63 64 66 63 64 65 64 65 66 65 64 63 60 58 57 58 58 57 54 52 53 54 54 54 55 55 57 59 60 60 60 59 57 57 59 59 57 55 55 54 51 47 45 45 44 42 41 41 38 35 32 30 28 25 23 20 18 16 16 12
86 100 72 84 68 72 125 154 141 126 168 172 149 117 71 30 14 65 15 51 92 16 21 10 4 30 44 66 101 71 71 85 100 116 96 73 73 69 66 63 59 57 58 58 58 57 58 60 58 56 54 51 51 50 49 46 42 41 42 42 41 41 41 42 44 47 49 52 52 52 53 55 55 54 51 50 49 48 46 42 40 40 39 39 40 38 34 31 29 27 25 23 22 20 18 16 15
52 73 70 76 90 93 129 162 160 142 149 161 174 58 89 64 28 93 58 58 79 46 55 39 31 56 61 79 95 86 98 110 112 114 92 77 73 66 61 58 55 52 51 49 49 47 45 48 47 48 48 45 43 44 45 43 41 37 36 36 35 35 32 30 29 30 31 33 35 37 42 46 49 49 47 45 43 42 41 38 36 36 35 34 36 37 34 30 28 26 23 22 20 18 18 16 13
45 68 74 81 92 23 276 185 175 121 113 117 33 48 104 128 158 146 69 51 67 68 61 57 58 64 77 90 95 100 110 112 112 103 85 75 65 58 55 55 54 53 53 50 50 48 45 45 44 44 45 43 43 44 45 44 44 41 39 38 37 35 32 29 27 24 21 19 19 19 24 31 36 40 42 41 39 39 37 34 32 31 30 28 29 29 30 29 26 24 22 21 19 17 16 15 13
58 90 76 68 88 18 354 81 70 80 104 92 62 51 81 125 164 87 79 48 45 67 59 56 68 68 77 84 88 98 103 101 99 90 76 64 59 57 54 53 53 52 50 48 47 46 45 46 45 44 44 43 45 46 46 46 45 45 45 45 44 43 39 37 34 31 28 25 25 23 22 23 25 28 31 33 33 34 34 32 30 27 24 22 22 21 22 23 22 22 19 18 18 17 16 14 12
48 72 76 72 142 53 29 58 68 84 107 96 73 57 56 69 53 63 106 86 43 62 70 60 86 90 86 81 81 87 89 86 82 75 67 61 60 58 55 51 49 47 44 42 40 40 40 40 41 40 39 39 41 41 41 41 41 41 41 42 42 42 41 39 36 33 32 31 32 31 29 26 26 26 24 24 24 23 23 23 24 24 22 19 17 16 17 17 16 16 15 14 15 16 16 15 11
46 48 89 117 124 63 27 56 75 73 88 93 86 74 57 19 29 60 122 91 42 13 46 80 115 116 103 93 82 82 81 77 71 68 68 67 65 61 60 55 51 48 44 40 36 36 36 35 35 36 37 37 37 37 37 36 35 34 33 33 32 33 32 32 32 30 28 27 27 28 27 27 26 26 25 25 23 19 16 13 14 14 14 15 14 13 13 13 11 10 9 9 10 11 11 12 10
74 41 75 64 67 77 31 41 66 65 73 72 67 66 56 22 31 26 60 94 69 8 76 94 114 112 106 105 99 95 90 89 85 79 75 73 71 67 62 56 52 47 42 40 39 39 36 35 36 38 42 40 38 36 35 33 30 29 26 24 24 25 24 23 23 22 21 19 18 21 23 24 22 21 22 23 22 19 16 12 11 10 7 7 7 7 8 10 8 5 3 1 1 3 4 6 6
93 46 36 49 63 83 42 29 50 65 71 55 61 78 61 70 54 20 54 84 84 90 104 106 105 107 110 110 109 109 107 105 99 87 79 77 75 67 58 51 48 47 46 47 46 44 40 38 37 40 43 41 39 36 34 32 27 24 21 20 20 20 18 16 15 13 13 12 10 12 15 19 19 17 16 16 17 15 13 9 7 7 5 3 2 1 2 4 3 0 358 354 353 354 357 360 360
87 82 46 60 70 81 79 77 69 70 80 73 84 77 36 68 83 38 54 74 83 99 106 104 106 113 116 116 118 122 122 118 109 94 83 80 80 70 63 57 53 53 54 53 49 47 44 41 36 35 38 36 36 34 33 31 24 20 18 18 18 16 15 14 10 4 3 3 5 6 6 9 12 12 10 8 8 7 5 2 1 0 359 358 356 357 357 357 358 355 353 350 349 349 350 353 353
68 97 98 74 69 81 86 83 80 76 85 91 77 70 60 96 109 83 81 106 110 113 109 106 112 117 120 124 133 136 135 135 127 113 104 99 97 87 76 67 60 56 54 51 45 42 39 38 37 32 29 27 26 26 28 26 20 18 17 15 13 10 10 11 7 359 355 354 355 359 0 360 1 4 5 2 359 360 359 355 355 354 353 353 350 351 352 350 350 349 348 347 345 344 343 346 348
52 104 104 99 89 83 82 75 86 87 80 82 75 81 120 117 95 79 139 150 134 124 114 113 117 119 128 135 140 137 136 144 144 137 128 120 110 97 86 72 60 53 47 42 34 30 28 29 33 34 32 27 21 21 23 22 19 17 16 14 8 3 1 359 358 355 351 348 347 348 352 354 353 353 356 358 356 354 354 352 351 349 348 348 345 345 345 344 343 342 342 342 340 339 338 340 341
143 111 98 104 111 98 82 91 112 98 60 85 103 130 178 187 64 87 199 174 133 118 110 113 118 130 146 143 144 138 138 145 145 141 136 132 119 104 93 76 59 51 40 34 26 19 20 18 19 24 31 30 26 23 21 21 20 15 10 7 3 0 356 350 348 347 344 343 341 339 340 346 349 348 347 350 353 352 351 349 349 346 343 342 340 339 339 339 338 337 337 338 337 336 334 335 337
133 118 91 68 86 69 58 89 129 95 68 113 127 139 259 317 23 157 186 171 142 126 132 143 133 154 161 155 161 150 148 147 147 148 148 149 135 118 105 79 54 43 34 32 27 19 19 16 12 12 18 21 19 17 14 13 13 8 3 359 355 351 349 347 345 342 339 338 334 332 332 334 339 343 343 342 343 345 346 346 345 345 342 339 336 335 335 335 334 334 335 335 335 334 334 334 335
132 115 99 46 35 43 20 29 342 66 120 178 130 82 336 331 332 179 167 159 154 141 158 174 158 165 163 157 157 153 156 154 161 164 156 150 142 141 127 87 39 26 29 35 34 28 24 19 17 13 11 11 9 7 5 4 3 2 360 356 352 344 339 338 338 335 333 331 329 326 325 324 327 331 335 336 335 334 335 338 340 342 342 338 335 333 332 332 332 332 333 334 333 334 333 333 334
116 61 100 84 16 21 349 349 347 64 137 185 127 42 298 293 253 188 168 157 150 148 172 180 164 160 150 143 133 141 154 152 159 158 149 142 139 145 137 105 36 8 4 10 6 5 6 6 10 9 7 5 2 359 357 356 356 354 353 353 352 347 341 335 332 329 325 324 324 323 322 319 318 318 322 326 328 328 327 328 330 333 337 336 334 332 330 330 330 329 330 331 330 331 330 331 331
72 36 57 46 52 328 311 343 30 58 137 126 94 95 266 266 229 202 187 161 151 162 182 179 169 161 147 142 126 135 154 151 151 148 148 145 142 147 138 138 336 338 327 326 327 333 337 341 348 352 355 353 351 350 347 348 347 346 345 344 345 345 344 341 336 330 322 318 318 318 318 316 314 314 315 318 320 322 322 322 324 326 329 330 331 330 328 326 326 325 326 326 326 326 326 326 326
35 50 360 357 77 312 308 339 51 51 295 47 79 185 266 255 220 209 193 159 157 168 182 181 172 165 155 150 138 144 160 153 152 154 157 155 152 164 174 217 270 293 297 304 309 315 322 325 329 333 337 337 337 336 334 334 335 337 337 336 336 336 338 339 339 335 327 320 316 315 316 315 314 313 313 315 316 315 315 316 319 321 322 323 324 326 325 323 322 320 321 322 321 322 322 321 322
5 64 31 346 37 9 329 332 19 25 306 351 32 214 270 286 219 209 192 157 160 167 179 184 176 175 169 164 158 157 165 161 162 163 163 167 176 210 238 250 264 276 284 294 301 306 312 317 319 321 324 325 325 324 323 322 323 326 328 329 329 330 331 331 332 333 330 324 318 317 318 317 315 314 314 315 314 312 310 310 313 317 318 317 317 319 320 320 319 316 316 317 316 316 317 317 317
344 26 31 353 7 17 4 332 349 18 23 339 351 202 248 285 233 211 199 160 158 168 180 186 182 185 180 175 172 170 174 181 185 177 175 188 207 230 243 259 269 275 283 289 296 299 304 308 310 313 315 316 317 315 314 311 311 314 317 320 322 323 325 326 325 325 327 326 320 318 318 316 316 316 316 314 313 310 306 307 309 312 315 314 312 312 315 317 316 313 311 312 312 311 311 313 313
299 332 3 348 335 25 17 339 346 11 2 333 1 352 286 297 256 210 209 162 150 170 178 183 196 193 190 186 184 191 188 198 201 191 191 200 208 222 234 252 266 275 281 285 291 294 296 299 302 306 308 310 310 308 306 304 302 304 308 313 315 318 321 322 322 321 322 323 321 320 316 314 313 314 316 315 313 308 304 304 306 309 312 311 309 308 310 313 313 311 308 308 308 306 306 307 309
198 247 148 35 341 327 322 319 351 8 351 328 6 344 307 316 299 216 213 155 137 148 151 178 206 201 203 199 199 204 199 213 209 198 196 203 208 219 229 244 257 268 278 283 287 287 289 292 294 300 306 307 305 302 301 299 297 297 302 308 311 315 318 319 319 319 320 321 321 320 317 315 313 312 314 314 312 307 302 302 305 307 309 309 306 305 307 310 310 308 306 304 303 302 302 303 306
176 146 109 60 13 318 296 304 4 18 2 304 342 337 321 334 319 232 176 126 133 145 153 196 213 210 210 207 211 212 210 224 216 202 199 202 209 221 232 245 255 265 276 282 283 285 287 288 287 294 305 307 302 300 300 297 294 293 295 300 306 310 313 314 315 317 318 318 319 319 317 317 315 312 312 312 311 307 303 301 303 305 308 308 304 303 305 306 306 305 303 301 299 298 299 300 303
103 109 103 58 28 317 298 282 345 25 35 290 342 2 351 354 347 350 124 124 166 186 189 212 217 220 222 213 219 220 223 232 212 202 199 201 212 224 234 244 253 264 274 279 280 283 287 287 286 292 303 306 304 303 300 297 295 293 292 294 300 303 306 308 309 312 313 314 316 316 317 316 315 314 312 311 310 308 304 301 300 302 305 305 302 301 302 303 303 302 300 298 297 296 294 296 300
48 70 100 54 1 307 304 314 340 8 55 280 344 22 8 4 13 36 80 110 208 219 215 245 227 236 245 230 228 223 219 219 200 198 197 203 219 228 235 246 257 267 276 280 281 284 289 291 293 298 306 309 310 309 305 301 299 296 292 293 296 297 300 303 302 304 306 307 310 312 313 314 314 313 312 311 309 308 306 301 300 300 302 302 300 299 300 300 300 300 298 296 295 294 292 293 294
44 54 80 12 336 349 321 326 338 339 291 234 355 45 28 12 29 40 36 39 28 8 8 358 311 267 256 250 248 222 198 195 196 203 204 210 225 233 240 252 265 272 276 281 285 291 295 298 303 310 316 318 320 320 318 315 311 304 297 294 295 293 295 300 300 302 305 306 308 311 313 313 312 310 309 309 307 306 305 301 300 299 299 300 298 296 296 297 298 297 297 294 292 291 290 291 290
2 58 94 76 337 6 261 285 327 332 294 135 38 51 25 7 24 29 13 31 37 19 16 4 338 318 292 280 271 236 202 189 188 203 218 226 236 244 251 261 269 273 277 283 290 297 302 309 316 320 322 323 325 327 329 330 326 320 311 303 300 298 298 301 301 304 308 309 309 310 311 311 310 308 308 307 306 305 303 300 299 297 297 296 295 294 294 295 294 294 293 292 290 287 286 288 288
342 324 131 146 157 272 271 296 330 12 27 14 50 68 12 353 17 16 356 24 26 6 16 5 342 344 340 321 294 259 215 196 201 216 231 241 249 256 264 269 272 276 282 290 299 306 313 318 320 322 323 324 326 328 330 331 331 329 324 315 308 304 303 303 304 305 306 307 307 307 308 309 309 308 307 307 305 303 302 300 299 296 295 293 292 292 291 291 291 290 291 289 287 286 284 284 284
344 273 144 140 124 291 287 311 353 68 4 332 47 100 138 335 2 351 335 12 18 5 15 5 350 356 352 340 336 357 65 158 238 242 242 252 263 268 274 278 281 285 294 302 306 311 318 322 322 322 323 325 326 327 327 327 327 327 326 320 313 307 301 301 305 306 305 305 305 305 305 307 308 307 306 305 304 302 301 299 298 296 294 292 291 289 288 288 287 287 287 285 285 285 282 280 280
308 183 118 6 309 285 260 350 41 90 256 335 17 79 120 339 340 322 324 13 20 7 5 357 356 360 358 3 14 23 21 355 280 276 289 311 313 304 299 299 301 301 304 307 310 314 320 323 323 322 322 324 325 324 324 323 323 324 324 321 317 312 306 304 308 308 308 308 306 305 306 306 306 305 304 303 302 301 299 297 297 295 293 291 289 287 286 286 285 284 284 283 282 281 279 276 276
269 225 36 304 286 229 189 126 87 330 61 12 349 34 83 261 283 312 337 38 20 353 347 343 346 349 358 10 18 23 12 357 355 339 335 335 325 316 314 315 316 318 320 321 321 323 323 325 326 325 323 323 323 324 324 323 323 323 322 320 317 316 313 311 311 310 310 309 307 307 307 306 306 306 306 305 303 300 297 296 294 292 290 289 287 285 284 283 281 281 281 281 280 279 278 275 274
281 289 357 342 51 115 124 105 102 40 59 48 331 18 71 255 289 315 352 49 356 323 320 315 320 330 342 352 356 5 2 353 356 349 340 335 329 326 327 328 329 331 333 332 331 331 330 330 331 328 325 324 324 325 325 324 323 320 318 316 313 311 310 309 307 305 305 304 303 303 303 302 302 302 303 303 302 300 299 297 295 292 290 288 285 283 282 280 279 279 280 280 280 279 279 276 274
303 359 35 34 40 55 74 60 83 61 21 258 266 7 98 241 284 263 267 51 248 275 309 309 314 326 325 322 322 328 332 327 331 339 344 345 342 339 338 335 335 336 336 335 334 333 332 331 329 327 325 325 325 325 325 322 321 319 317 315 312 310 309 306 304 302 304 304 303 302 301 300 299 298 299 298 297 296 296 296 295 294 292 290 287 284 282 281 281 281 281 282 282 281 280 279 276
343 8 43 61 7 11 34 355 33 70 328 252 236 347 81 158 253 233 247 277 238 220 267 294 306 312 309 308 304 300 316 326 328 336 338 339 338 337 335 333 332 333 333 333 333 332 332 331 329 327 326 327 325 324 322 320 320 319 318 317 314 312 310 307 306 306 308 308 307 307 306 305 305 304 304 302 299 298 297 297 296 295 294 293 292 290 289 288 288 287 286 286 285 283 282 280 278
8 2 22 60 18 4 23 330 8 83 259 232 199 352 52 192 247 226 243 273 245 220 222 240 267 287 293 295 298 302 319 327 321 317 317 321 325 326 327 329 330 331 332 333 333 332 332 330 329 326 325 326 325 323 322 322 322 323 322 321 319 318 315 313 312 311 312 312 312 313 312 312 312 311 310 308 307 307 306 305 303 302 300 299 298 297 295 295 294 293 292 290 288 286 284 283 280
2 353 27 73 74 36 341 297 349 308 276 276 326 347 330 283 274 205 200 236 236 230 229 231 243 264 282 287 292 301 309 312 305 300 304 312 317 320 324 327 329 330 330 330 331 331 330 329 329 326 326 328 328 327 328 327 328 328 328 328 326 325 322 319 317 315 316 317 317 316 315 314 313 312 312 311 311 311 310 308 307 305 304 302 300 298 295 294 293 292 291 290 289 288 287 285 282
323 267 88 91 113 83 321 258 275 280 288 301 330 7 171 248 289 209 202 241 265 263 261 265 271 274 287 297 300 304 304 304 301 298 304 310 317 321 324 327 328 328 329 329 329 330 330 329 330 328 328 330 332 332 332 331 332 333 333 332 330 328 325 322 321 320 320 319 317 316 314 313 313 312 312 311 311 310 309 308 306 304 303 301 299 297 295 293 292 290 289 287 287 286 285 284 282
293 129 68 38 131 116 151 208 201 230 305 301 312 299 198 204 289 300 26 293 300 318 306 314 315 303 314 319 308 305 299 296 299 299 301 307 315 320 321 323 326 327 328 329 328 329 328 328 330 329 329 331 333 335 336 336 337 336 334 332 330 330 328 325 323 321 320 318 317 316 315 314 313 312 312 311 310 309 308 307 306 305 304 302 300 298 296 294 292 291 289 287 285 284 284 283 283
333 46 41 268 176 124 108 318 344 55 50 284 297 305 293 331 312 342 33 311 292 323 322 318 308 302 315 314 300 297 292 291 292 289 292 300 309 315 318 320 321 324 327 328 328 328 326 327 329 330 331 334 339 341 341 340 337 334 332 331 330 329 327 324 322 321 320 319 318 316 315 314 313 312 312 311 310 309 308 307 306 305 304 302 300 298 297 295 294 292 289 287 286 286 285 283 283
58 30 288 243 68 84 97 39 360 33 43 272 325 327 296 335 315 278 303 275 289 312 303 296 299 302 310 306 297 292 288 287 288 291 297 302 307 312 316 320 322 324 326 326 327 327 328 331 332 333 337 342 345 344 341 337 335 333 331 330 328 327 326 324 322 321 320 318 317 316 315 313 313 313 312 312 311 310 309 308 307 305 303 301 300 298 297 296 294 292 290 288 287 286 285 283 282
83 75 244 99 66 15 30 66 25 4 316 287 318 320 269 233 223 230 234 239 265 290 290 301 315 317 312 305 298 292 292 294 293 295 299 303 307 310 313 317 319 324 327 327 328 331 333 335 338 341 344 345 344 340 337 335 333 332 330 328 327 327 325 323 321 320 319 317 316 315 315 314 313 313 313 312 311 310 309 308 307 305 304 302 301 299 298 297 295 293 291 289 288 287 284 282 282
25 30 360 40 115 161 305 58 138 183 288 294 318 332 290 238 212 195 216 222 232 265 285 310 311 305 298 291 290 290 291 293 292 293 295 298 303 307 311 314 316 324 329 330 333 336 337 340 345 348 346 342 339 337 335 333 332 331 329 328 327 326 324 322 320 319 318 317 316 316 316 315 314 314 313 312 311 311 310 310 309 308 307 306 305 304 303 302 300 297 295 293 292 290 287 284 283
354 24 23 1 355 76 49 11 118 131 169 225 321 317 276 252 211 186 209 218 219 232 258 301 297 292 289 285 286 289 288 288 288 286 290 295 298 304 312 318 322 328 333 335 337 337 340 346 349 348 343 339 336 334 333 332 331 330 329 327 326 324 323 322 321 320 319 318 318 318 317 317 315 315 315 314 314 313 312 311 310 309 308 308 307 307 306 306 304 301 300 298 296 295 292 289 288
188 90 97 140 311 72 75 328 323 88 142 171 166 286 273 260 204 193 205 213 228 226 228 299 297 291 293 294 293 294 293 289 287 285 289 294 297 304 317 325 329 332 333 334 334 336 343 348 348 344 339 335 333 333 333 332 331 329 327 326 324 323 323 322 322 321 321 320 320 319 319 318 317 316 316 315 314 312 311 310 309 308 307 306 305 304 303 302 301 299 298 297 296 294 292 290 288